Location: Recife
(8.0585°S, 34.8848°W)
Time: 10:33:49
(UTC-03:00)

Courier 1B Rocket - Pass Details

Date: 14 April 2026
Orbit: 920 x 1201 km, 28.2° (Epoch: 13 May)

Event Time Altitude Azimuth Distance (km) Brightness Sun altitude
Rises 09:35:57 0° 235° (SW) 3,877 7.8 58.7°
Reaches altitude 10° 09:40:11 10° 212° (SSW) 2,983 7.4 59.6°
Maximum altitude 09:44:04 15° 180° (S) 2,688 7.3 60.4°
Drops below altitude 10° 09:48:04 10° 148° (SSE) 3,077 7.7 61.2°
Sets 09:52:33 0° 125° (SE) 4,076 8.3 62.0°
